Погода в Басакине

Россия / Волгоградская область     48°09′52″N   42°16′41″E
темп.,
°C
ветер,
м/с
пор.,
м/с
влажн.,
%
обл.,
%
осадки,
мм/ч
давл.,
гПа
погр.,
м
7 мая, пт
пт700:00+12ююв4770100 0.0 1013107
03:00+12ю51368100 0.0 1013321
06:00+11ююв5127261 0.0 1014360
09:00+15ю6859100 0.0 1014603
12:00+19юз5656100 0.0 10141429
15:00+21з573919 0.0 10142090
18:00+18сз57644 0.1 1015859
21:00+12ссз35793 0.1 101786
8 мая, сб
сб800:00+11ссв338119 0.0 101828
03:00+10в129299 0.0 101710
06:00+11юв228998 0.0 101781
09:00+17ююв346638 0.0 1016663
12:00+20ю5553100 0.0 10151307
15:00+21ю5653100 0.0 10141429
18:00+20ююв3662100 0.0 1012248
21:00+16ю337582 0.2 101243
9 мая, вс
вс900:00+15ююв2278100 0.8 101120
03:00+13сз1295100 1.9 101149
06:00+14ссв3491100 2.1 1009163
09:00+15в1284100 2.5 1010379
12:00+18в4563100 0.3 10091074
15:00+17вюв1360100 0.3 1009695
18:00+10с81386100 0.0 1011495
21:00+9с71389100 0.8 1013572
10 мая, пн
пн1000:00+8ссз71193100 1.9 1013580
03:00+8ссз61094100 4.2 1013511
06:00+8ссз4794100 0.8 1014457
09:00+9ссз3594100 1.4 1013327
12:00+10з1194100 1.8 1014159
15:00+9зюз3495100 5.6 1014238
18:00+8ю3597100 5.3 1015287
21:00+12ссв132286100 1.9 1014852
11 мая, вт
вт1100:00+8ю2395100 2.8 1018263
03:00+7ю3594100 2.9 1019355
06:00+7ююв3592100 0.0 1020357
09:00+10ююв4576100 0.1 1022944
12:00+11ююз567398 0.1 1023907
15:00+13зсз2263100 0.1 10231069
18:00+12сз2271100 0.0 1022278
21:00+9ссз33815 0.0 102229